period_start,C,m1,H,J0,J1,J2,J3,J4,J5,JA,JB,JC,JD,JJ,JK,JN,#
2013-12-26 00:00:44,0.19,2.28,0.00,26.65,28.25,30.90,6.02,30.46,1025.43,2035.01,2691.35,2686.65,2929.15,350.15,322.74,8.02,0000 0000 0000 0000 000000
2013-12-26 00:01:44,0.26,2.28,0.00,26.67,28.26,30.92,6.01,30.42,1025.42,2035.02,2690.96,2686.24,2928.91,350.60,323.32,8.03,0000 0000 0000 0000 000000
2013-12-26 00:02:44,0.25,2.28,0.00,26.67,28.26,30.92,5.98,30.54,1025.42,2035.01,2690.40,2686.06,2928.41,350.30,323.06,8.03,0000 0000 0000 0000 000000
2013-12-26 00:03:44,0.21,2.28,0.00,26.66,28.25,30.92,5.83,30.46,1025.43,2035.00,2690.12,2685.63,2928.13,350.18,322.95,8.04,0000 0000 0000 0000 000000
2013-12-26 00:04:44,0.22,2.28,0.00,26.66,28.26,30.93,5.94,30.21,1025.41,2035.00,2689.63,2685.25,2928.00,350.40,322.95,8.05,0000 0000 0000 0000 000000
2013-12-26 00:05:45,0.22,2.28,0.00,26.67,28.26,30.92,5.89,30.29,1025.42,2035.02,2689.25,2685.08,2927.64,349.96,322.77,8.05,0000 0000 0000 0000 000000
2013-12-26 00:06:45,0.19,2.29,0.00,26.68,28.26,30.92,5.83,30.33,1025.42,2035.02,2688.93,2684.81,2927.23,349.88,322.83,8.06,0000 0000 0000 0000 000000
2013-12-26 00:07:45,0.23,2.29,0.00,26.67,28.26,30.89,5.80,30.38,1025.41,2035.01,2688.38,2684.32,2926.99,349.69,322.49,8.06,0000 0000 0000 0000 000000
2013-12-26 00:08:46,0.25,2.29,0.00,26.68,28.27,30.92,6.03,30.83,1025.41,2035.00,2688.08,2684.11,2926.46,350.27,323.00,8.07,0000 0000 0000 0000 000000
2013-12-26 00:09:46,0.18,2.29,0.00,26.67,28.26,30.92,5.98,30.38,1025.42,2035.00,2687.57,2683.92,2926.17,350.49,323.22,8.07,0000 0000 0000 0000 000000
2013-12-26 00:10:47,0.22,2.29,0.00,26.63,28.27,30.97,6.01,30.42,1025.46,2035.00,2687.22,2683.42,2926.00,349.33,322.21,8.08,0000 0000 0000 0000 000000
2013-12-26 00:11:47,0.24,2.29,0.00,26.63,28.27,30.96,6.07,30.63,1025.44,2035.00,2686.93,2683.15,2925.54,351.11,324.03,8.09,0000 0000 0000 0000 000000
2013-12-26 00:12:47,0.21,2.29,0.00,26.64,28.27,30.95,5.95,30.38,1025.44,2035.02,2686.38,2682.99,2925.21,350.75,323.68,8.09,0000 0000 0000 0000 000000
2013-12-26 00:13:47,0.19,2.29,0.00,26.65,28.27,30.95,5.91,30.58,1025.43,2035.00,2686.10,2682.50,2925.02,349.80,322.61,8.10,0000 0000 0000 0000 000000
2013-12-26 00:14:47,0.22,2.30,0.00,26.65,28.27,30.91,5.85,30.50,1025.42,2035.02,2685.58,2682.18,2924.55,349.19,322.19,8.10,0000 0000 0000 0000 000000
2013-12-26 00:15:48,0.28,2.30,0.00,26.66,28.27,30.92,5.92,30.33,1025.43,2035.03,2685.20,2682.03,2924.21,350.89,324.00,8.11,0000 0000 0000 0000 000000
2013-12-26 00:16:48,0.18,2.30,0.00,26.66,28.27,30.93,5.98,30.38,1025.42,2035.03,2684.80,2681.61,2924.00,350.58,323.32,8.12,0000 0000 0000 0000 000000
2013-12-26 00:17:48,0.26,2.30,0.00,26.68,28.27,30.94,5.79,30.54,1025.43,2035.03,2684.30,2681.23,2923.51,349.97,322.74,8.12,0000 0000 0000 0000 000000
2013-12-26 00:18:49,0.26,2.30,0.00,26.67,28.27,30.94,5.93,30.46,1025.44,2035.03,2684.00,2681.06,2923.18,350.53,323.00,8.13,0000 0000 0000 0000 000000
2013-12-26 00:19:49,0.14,2.30,0.00,26.70,28.27,30.91,5.95,30.54,1025.44,2035.05,2683.45,2680.65,2922.92,349.44,321.75,8.13,0000 0000 0000 0000 000000
2013-12-26 00:20:49,0.33,2.30,0.00,26.71,28.26,30.92,5.90,30.58,1025.43,2035.08,2683.13,2680.24,2922.41,348.58,321.47,8.14,0000 0000 0000 0000 000000
2013-12-26 00:21:49,0.27,2.31,0.00,26.70,28.27,30.94,6.02,30.63,1025.44,2035.11,2682.66,2680.08,2922.14,349.46,322.25,8.15,0000 0000 0000 0000 000000
2013-12-26 00:22:50,0.18,2.31,0.00,26.69,28.27,30.92,6.00,30.88,1025.43,2035.09,2682.24,2679.82,2921.99,350.68,323.38,8.15,0000 0000 0000 0000 000000
2013-12-26 00:23:50,0.19,2.31,0.00,26.71,28.27,30.95,6.02,30.54,1025.43,2035.07,2681.88,2679.33,2921.49,350.00,322.73,8.16,0000 0000 0000 0000 000000
2013-12-26 00:24:50,0.28,2.31,0.00,26.68,28.27,30.91,5.93,30.46,1025.48,2035.04,2681.36,2679.11,2921.17,349.92,322.14,8.16,0000 0000 0000 0000 000000
2013-12-26 00:25:50,0.14,2.31,0.00,26.68,28.26,30.91,5.95,30.42,1025.44,2035.03,2680.95,2678.72,2920.88,350.07,322.84,8.17,0000 0000 0000 0000 000000
2013-12-26 00:26:50,0.27,2.31,0.00,26.67,28.27,30.91,5.88,30.17,1025.43,2035.05,2680.41,2678.28,2920.37,349.87,322.65,8.17,0000 0000 0000 0000 000000
2013-12-26 00:27:51,0.29,2.31,0.00,26.68,28.27,30.95,5.90,30.33,1025.43,2035.07,2680.09,2678.09,2920.11,349.70,322.50,8.18,0000 0000 0000 0000 000000
2013-12-26 00:28:51,0.17,2.32,0.00,26.67,28.27,30.95,5.77,30.29,1025.42,2035.06,2679.57,2677.76,2919.80,349.80,322.33,8.19,0000 0000 0000 0000 000000
2013-12-26 00:29:51,0.28,2.32,0.00,26.64,28.27,30.94,5.97,30.33,1025.43,2035.07,2679.20,2677.30,2919.32,350.53,322.82,8.19,0000 0000 0000 0000 000000
2013-12-26 00:30:51,0.25,2.32,0.00,26.65,28.27,30.95,5.83,30.38,1025.42,2035.04,2678.76,2677.10,2919.07,349.35,322.59,8.20,0000 0000 0000 0000 000000
2013-12-26 00:31:52,0.16,2.32,0.00,26.67,28.27,30.93,5.84,30.42,1025.44,2035.01,2678.28,2676.69,2918.58,350.08,322.86,8.20,0000 0000 0000 0000 000000
2013-12-26 00:32:52,0.28,2.32,0.00,26.66,28.27,30.95,5.98,30.29,1025.44,2035.03,2677.89,2676.26,2918.21,349.89,322.63,8.21,0000 0000 0000 0000 000000
2013-12-26 00:33:52,0.28,2.32,0.00,26.65,28.27,30.94,5.90,30.25,1025.43,2035.03,2677.37,2676.08,2917.98,349.83,322.64,8.22,0000 0000 0000 0000 000000
2013-12-26 00:34:52,0.16,2.32,0.00,26.65,28.27,30.91,5.93,30.25,1025.43,2035.05,2677.02,2675.72,2917.49,350.39,323.16,8.22,0000 0000 0000 0000 000000
2013-12-26 00:35:53,0.32,2.33,0.00,26.66,28.27,30.90,5.98,30.54,1025.42,2035.04,2676.43,2675.28,2917.18,349.91,322.69,8.23,0000 0000 0000 0000 000000
2013-12-26 00:36:53,0.24,2.33,0.00,26.66,28.27,30.93,5.81,30.38,1025.41,2035.04,2676.11,2675.09,2916.88,349.72,322.34,8.23,0000 0000 0000 0000 000000
2013-12-26 00:37:53,0.18,2.33,0.00,26.66,28.27,30.91,6.02,30.46,1025.41,2035.05,2675.58,2674.74,2916.37,349.44,322.34,8.24,0000 0000 0000 0000 000000
2013-12-26 00:38:53,0.31,2.33,0.00,26.67,28.26,30.91,5.77,30.42,1025.42,2035.06,2675.20,2674.30,2916.13,348.95,321.80,8.24,0000 0000 0000 0000 000000
2013-12-26 00:39:53,0.24,2.33,0.00,26.69,28.26,30.88,5.98,30.63,1025.42,2035.08,2674.75,2674.09,2915.80,350.06,322.96,8.25,0000 0000 0000 0000 000000
2013-12-26 00:40:54,0.20,2.33,0.00,26.69,28.26,30.92,5.92,30.63,1025.42,2035.04,2674.28,2673.62,2915.33,350.34,323.33,8.26,0000 0000 0000 0000 000000
2013-12-26 00:41:54,0.28,2.33,0.00,26.71,28.26,30.93,5.94,30.58,1025.44,2035.03,2673.86,2673.24,2915.10,349.46,322.14,8.26,0000 0000 0000 0000 000000
2013-12-26 00:42:54,0.22,2.34,0.00,26.72,28.26,30.93,6.02,30.58,1025.43,2035.06,2673.32,2673.05,2914.67,349.41,321.87,8.27,0000 0000 0000 0000 000000
2013-12-26 00:43:54,0.25,2.34,0.00,26.71,28.26,30.91,5.89,30.58,1025.42,2035.04,2673.07,2672.74,2914.24,349.42,322.19,8.27,0000 0000 0000 0000 000000
2013-12-26 00:44:55,0.19,2.34,0.00,26.72,28.26,30.94,5.88,30.54,1025.41,2035.03,2672.55,2672.30,2914.06,349.57,322.32,8.28,0000 0000 0000 0000 000000
2013-12-26 00:45:55,0.24,2.34,0.00,26.72,28.26,30.97,5.83,30.38,1025.41,2035.09,2672.19,2672.10,2913.70,349.62,322.36,8.29,0000 0000 0000 0000 000000
2013-12-26 00:46:55,0.24,2.34,0.00,26.71,28.26,30.93,5.97,30.25,1025.41,2035.12,2671.81,2671.90,2913.28,351.07,323.70,8.29,0000 0000 0000 0000 000000
2013-12-26 00:47:56,0.25,2.34,0.00,26.68,28.27,30.92,6.04,30.46,1025.42,2035.17,2671.32,2671.41,2913.06,350.51,323.23,8.30,0000 0000 0000 0000 000000
2013-12-26 00:48:56,0.28,2.34,0.00,26.68,28.26,30.95,5.82,30.25,1025.42,2035.11,2670.85,2671.12,2912.54,350.24,322.90,8.30,0000 0000 0000 0000 000000
2013-12-26 00:49:56,0.21,2.35,0.00,26.70,28.26,30.95,5.97,30.58,1025.41,2035.09,2670.32,2670.75,2912.20,351.05,323.42,8.31,0000 0000 0000 0000 000000
2013-12-26 00:50:56,0.26,2.35,0.00,26.72,28.27,30.92,5.96,30.46,1025.41,2035.09,2669.93,2670.29,2911.96,349.80,322.54,8.31,0000 0000 0000 0000 000000
2013-12-26 00:51:57,0.24,2.35,0.00,26.71,28.27,30.91,5.86,30.33,1025.41,2035.06,2669.40,2670.08,2911.45,349.91,322.65,8.32,0000 0000 0000 0000 000000
2013-12-26 00:52:57,0.19,2.35,0.00,26.69,28.27,30.93,5.99,30.50,1025.41,2035.06,2669.05,2669.69,2911.13,350.49,323.37,8.33,0000 0000 0000 0000 000000
2013-12-26 00:53:57,0.26,2.35,0.00,26.69,28.27,30.94,6.02,30.46,1025.41,2035.06,2668.48,2669.27,2910.78,350.98,323.64,8.33,0000 0000 0000 0000 000000
2013-12-26 00:54:57,0.32,2.35,0.00,26.69,28.27,30.92,6.02,30.75,1025.41,2035.06,2668.16,2669.09,2910.33,350.11,322.90,8.34,0000 0000 0000 0000 000000
2013-12-26 00:55:58,0.12,2.35,0.00,26.66,28.27,30.91,5.83,30.38,1025.41,2035.08,2667.75,2668.84,2910.10,350.51,323.53,8.34,0000 0000 0000 0000 000000
2013-12-26 00:56:58,0.24,2.35,0.00,26.68,28.26,30.91,5.97,30.50,1025.41,2035.10,2667.28,2668.34,2909.72,350.00,322.42,8.35,0000 0000 0000 0000 000000
2013-12-26 00:57:58,0.33,2.36,0.00,26.71,28.26,30.92,5.91,30.71,1025.41,2035.10,2666.88,2668.12,2909.27,349.84,322.72,8.36,0000 0000 0000 0000 000000
2013-12-26 00:58:58,0.19,2.36,0.00,26.69,28.27,30.91,5.90,30.71,1025.41,2035.13,2666.36,2667.89,2909.06,350.30,322.97,8.36,0000 0000 0000 0000 000000
2013-12-26 00:59:59,0.23,2.36,0.00,26.72,28.27,30.93,5.82,30.38,1025.41,2035.17,2666.10,2667.38,2908.59,348.68,321.73,8.37,0000 0000 0000 0000 000000
2013-12-26 01:00:59,0.34,2.36,0.00,26.69,28.27,30.93,5.88,30.92,1025.41,2035.13,2665.57,2667.12,2908.21,349.75,322.51,8.37,0000 0000 0000 0000 000000
2013-12-26 01:01:59,0.13,2.36,0.00,26.70,28.26,30.92,6.01,30.50,1025.41,2035.14,2665.18,2666.81,2907.95,350.64,323.54,8.38,0000 0000 0000 0000 000000
2013-12-26 01:02:59,0.26,2.36,0.00,26.69,28.26,30.91,5.92,30.33,1025.41,2035.11,2664.71,2666.31,2907.44,350.27,322.65,8.39,0000 0000 0000 0000 000000
2013-12-26 01:03:59,0.28,2.37,0.00,26.69,28.26,30.90,5.93,30.42,1025.41,2035.06,2664.25,2666.09,2907.13,349.96,322.71,8.39,0000 0000 0000 0000 000000
2013-12-26 01:05:00,0.13,2.37,0.00,26.69,28.26,30.89,6.01,30.46,1025.41,2035.03,2663.76,2665.73,2906.78,350.03,322.78,8.40,0000 0000 0000 0000 000000
2013-12-26 01:06:00,0.26,2.37,0.00,26.69,28.27,30.90,5.90,30.17,1025.41,2035.03,2663.29,2665.29,2906.33,350.02,322.76,8.40,0000 0000 0000 0000 000000
2013-12-26 01:07:00,0.29,2.37,0.00,26.72,28.27,30.91,5.97,30.33,1025.41,2035.06,2662.99,2665.09,2906.11,350.18,322.88,8.41,0000 0000 0000 0000 000000
2013-12-26 01:08:00,0.11,2.37,0.00,26.72,28.26,30.93,5.96,30.63,1025.39,2035.09,2662.45,2664.73,2905.70,350.23,322.92,8.41,0000 0000 0000 0000 000000
2013-12-26 01:09:01,0.36,2.37,0.00,26.70,28.27,30.97,5.85,30.71,1025.35,2035.06,2662.07,2664.28,2905.27,349.24,322.02,8.42,0000 0000 0000 0000 000000
2013-12-26 01:10:01,0.22,2.37,0.00,26.68,28.26,30.97,5.95,30.29,1025.31,2035.06,2661.55,2664.09,2905.01,350.58,323.27,8.43,0000 0000 0000 0000 000000
2013-12-26 01:11:01,0.19,2.37,0.00,26.69,28.26,30.95,5.88,30.58,1025.28,2035.03,2661.20,2663.79,2904.48,349.95,322.66,8.43,0000 0000 0000 0000 000000
2013-12-26 01:12:01,0.23,2.38,0.00,26.69,28.26,30.92,5.89,30.42,1025.23,2035.06,2660.80,2663.32,2904.18,349.75,322.39,8.44,0000 0000 0000 0000 000000
2013-12-26 01:13:01,0.31,2.38,0.00,26.70,28.26,30.93,5.84,30.42,1025.14,2035.06,2660.30,2663.11,2903.98,349.62,322.30,8.44,0000 0000 0000 0000 000000
2013-12-26 01:14:02,0.16,2.38,0.00,26.69,28.26,30.93,5.76,30.54,1025.00,2035.09,2659.90,2662.76,2903.49,349.13,321.82,8.45,0000 0000 0000 0000 000000
2013-12-26 01:15:02,0.30,2.38,0.00,26.71,28.26,30.95,5.93,30.42,1024.99,2035.07,2659.40,2662.30,2903.18,349.92,321.95,8.46,0000 0000 0000 0000 000000
2013-12-26 01:16:02,0.25,2.38,0.00,26.72,28.26,30.94,5.90,30.38,1024.98,2035.08,2659.09,2662.10,2902.96,350.08,322.64,8.46,0000 0000 0000 0000 000000
2013-12-26 01:17:02,0.16,2.38,0.00,26.71,28.27,30.93,5.91,30.50,1024.95,2035.15,2658.57,2661.92,2902.43,349.75,322.36,8.47,0000 0000 0000 0000 000000
2013-12-26 01:18:03,0.32,2.38,0.00,26.72,28.27,30.96,5.78,30.38,1024.95,2035.24,2658.21,2661.43,2902.16,349.64,322.66,8.47,0000 0000 0000 0000 000000
2013-12-26 01:19:03,0.36,2.39,0.00,26.70,28.26,30.92,5.95,30.50,1024.93,2035.20,2657.73,2661.14,2901.82,349.92,322.51,8.48,0000 0000 0000 0000 000000
2013-12-26 01:20:03,0.15,2.39,0.00,26.69,28.26,30.92,5.85,30.42,1024.94,2035.11,2657.26,2660.79,2901.31,349.67,322.30,8.48,0000 0000 0000 0000 000000
2013-12-26 01:21:03,0.19,2.39,0.00,26.70,28.27,30.93,5.84,30.54,1024.92,2035.10,2656.85,2660.31,2901.10,349.12,321.77,8.49,0000 0000 0000 0000 000000
2013-12-26 01:22:04,0.26,2.39,0.00,26.69,28.27,30.92,6.06,30.54,1024.92,2035.11,2656.33,2660.11,2900.74,350.03,322.62,8.50,0000 0000 0000 0000 000000
2013-12-26 01:23:04,0.23,2.39,0.00,26.70,28.27,30.93,5.83,30.46,1024.94,2035.09,2656.03,2659.78,2900.28,349.48,322.42,8.50,0000 0000 0000 0000 000000
2013-12-26 01:24:04,0.19,2.39,0.00,26.68,28.27,30.92,5.90,30.50,1024.92,2035.10,2655.47,2659.33,2900.08,349.71,322.26,8.51,0000 0000 0000 0000 000000
2013-12-26 01:25:04,0.31,2.40,0.00,26.70,28.27,30.96,5.85,30.75,1024.92,2035.08,2655.12,2659.11,2899.58,348.72,321.41,8.51,0000 0000 0000 0000 000000
2013-12-26 01:26:04,0.15,2.40,0.00,26.71,28.27,30.95,5.93,30.71,1024.92,2035.07,2654.57,2658.80,2899.19,349.56,322.30,8.52,0000 0000 0000 0000 000000
2013-12-26 01:27:05,0.26,2.40,0.00,26.70,28.27,30.94,5.82,30.63,1024.92,2035.08,2654.20,2658.34,2898.98,350.06,322.64,8.53,0000 0000 0000 0000 000000
2013-12-26 01:28:05,0.26,2.40,0.00,26.71,28.26,30.95,5.94,30.33,1024.92,2035.10,2653.89,2658.12,2898.50,349.81,322.40,8.53,0000 0000 0000 0000 000000
2013-12-26 01:29:05,0.21,2.40,0.00,26.71,28.26,30.95,5.87,30.54,1024.92,2035.09,2653.37,2657.83,2898.18,349.77,322.37,8.54,0000 0000 0000 0000 000000
2013-12-26 01:30:05,0.24,2.40,0.00,26.72,28.26,30.94,6.00,30.50,1024.92,2035.09,2652.99,2657.35,2897.85,350.72,323.23,8.54,0000 0000 0000 0000 000000
2013-12-26 01:31:06,0.26,2.40,0.00,26.73,28.27,30.95,5.90,30.92,1024.92,2035.08,2652.42,2657.08,2897.34,349.77,322.33,8.55,0000 0000 0000 0000 000000
2013-12-26 01:32:06,0.29,2.40,0.00,26.73,28.26,30.93,5.92,30.54,1024.92,2035.05,2651.81,2656.60,2896.93,350.20,322.74,8.55,0000 0000 0000 0000 000000
2013-12-26 01:33:06,0.30,2.41,0.00,26.73,28.27,30.92,5.94,30.63,1024.92,2035.02,2651.25,2656.21,2896.37,350.20,322.73,8.56,0000 0000 0000 0000 000000
2013-12-26 01:34:06,0.28,2.41,0.00,26.72,28.26,30.93,6.01,30.46,1024.92,2035.03,2650.57,2655.88,2896.12,351.05,323.53,8.57,0000 0000 0000 0000 000000
2013-12-26 01:35:07,0.28,2.41,0.00,26.74,28.26,30.93,6.00,30.46,1024.92,2035.08,2650.20,2655.43,2895.71,349.87,322.42,8.57,0000 0000 0000 0000 000000
2013-12-26 01:36:07,0.32,2.41,0.00,26.73,28.26,30.94,5.92,30.63,1024.92,2035.10,2649.82,2655.15,2895.27,350.62,323.12,8.58,0000 0000 0000 0000 000000
2013-12-26 01:37:07,0.25,2.41,0.00,26.72,28.26,30.91,5.88,30.79,1024.91,2035.17,2649.31,2654.91,2895.09,350.08,322.66,8.58,0000 0000 0000 0000 000000
2013-12-26 01:38:07,0.29,2.41,0.00,26.68,28.26,30.93,5.92,30.75,1024.92,2035.22,2648.97,2654.42,2894.68,349.99,322.54,8.59,0000 0000 0000 0000 000000
2013-12-26 01:39:07,0.30,2.42,0.00,26.69,28.26,30.95,6.13,30.58,1024.92,2035.20,2648.39,2654.15,2894.25,350.85,323.38,8.60,0000 0000 0000 0000 000000
2013-12-26 01:40:08,0.21,2.42,0.00,26.70,28.26,30.95,5.91,30.88,1024.92,2035.21,2648.12,2653.80,2894.01,349.63,322.05,8.60,0000 0000 0000 0000 000000
2013-12-26 01:41:08,0.20,2.42,0.00,26.70,28.26,30.98,5.94,31.00,1024.92,2035.14,2647.58,2653.32,2893.51,350.47,322.77,8.61,0000 0000 0000 0000 000000
2013-12-26 01:42:08,0.27,2.42,0.00,26.70,28.26,30.96,6.15,31.00,1024.92,2035.10,2647.17,2653.11,2893.18,349.87,322.81,8.61,0000 0000 0000 0000 000000
2013-12-26 01:43:08,0.15,2.42,0.00,26.69,28.25,30.95,5.95,30.67,1024.90,2035.10,2646.62,2652.84,2892.88,349.90,322.96,8.62,0000 0000 0000 0000 000000
2013-12-26 01:44:09,0.25,2.42,0.00,26.69,28.26,30.96,6.06,30.71,1024.91,2035.16,2646.22,2652.36,2892.37,349.93,322.94,8.62,0000 0000 0000 0000 000000
2013-12-26 01:45:09,0.33,2.43,0.00,26.69,28.26,30.94,5.87,30.58,1024.91,2035.12,2645.80,2652.13,2892.12,350.01,322.56,8.63,0000 0000 0000 0000 000000
2013-12-26 01:46:09,0.16,2.43,0.00,26.69,28.26,30.93,5.98,30.67,1024.87,2035.08,2645.29,2651.82,2891.72,350.91,323.42,8.64,0000 0000 0000 0000 000000
2013-12-26 01:47:10,0.19,2.43,0.00,26.67,28.26,30.95,5.80,30.50,1024.91,2035.06,2645.02,2651.34,2891.28,348.74,321.44,8.64,0000 0000 0000 0000 000000
2013-12-26 01:48:10,0.26,2.43,0.00,26.65,28.25,30.93,5.96,30.42,1024.91,2035.04,2644.48,2651.11,2891.06,350.83,323.39,8.65,0000 0000 0000 0000 000000
2013-12-26 01:49:10,0.20,2.43,0.00,26.68,28.26,30.93,5.97,30.50,1024.92,2035.09,2644.13,2650.81,2890.55,350.26,322.85,8.65,0000 0000 0000 0000 000000
2013-12-26 01:50:10,0.28,2.43,0.00,26.71,28.26,30.95,6.09,30.63,1024.92,2035.08,2643.58,2650.34,2890.19,349.86,322.44,8.66,0000 0000 0000 0000 000000
2013-12-26 01:51:11,0.30,2.43,0.00,26.71,28.26,30.96,5.94,30.67,1024.91,2035.07,2643.21,2650.11,2889.91,350.52,323.04,8.67,0000 0000 0000 0000 000000
2013-12-26 01:52:11,0.17,2.43,0.00,26.71,28.25,30.96,5.86,30.54,1024.90,2035.06,2642.80,2649.86,2889.41,349.29,321.90,8.67,0000 0000 0000 0000 000000
2013-12-26 01:53:11,0.23,2.44,0.00,26.72,28.26,30.95,5.83,30.42,1024.90,2035.06,2642.31,2649.37,2889.14,349.17,322.23,8.68,0000 0000 0000 0000 000000
2013-12-26 01:54:11,0.28,2.44,0.00,26.73,28.26,30.95,5.88,30.29,1024.90,2035.13,2641.98,2649.13,2888.89,350.03,322.04,8.68,0000 0000 0000 0000 000000
2013-12-26 01:55:12,0.21,2.44,0.00,26.75,28.26,30.96,6.03,30.46,1024.89,2035.10,2641.43,2648.87,2888.38,350.46,322.94,8.69,0000 0000 0000 0000 000000
2013-12-26 01:56:12,0.23,2.44,0.00,26.74,28.25,30.94,5.84,30.58,1024.87,2035.06,2641.12,2648.37,2888.14,349.45,321.65,8.70,0000 0000 0000 0000 000000
2013-12-26 01:57:12,0.23,2.44,0.00,26.73,28.26,30.94,6.01,30.58,1024.88,2035.05,2640.57,2648.13,2887.74,350.76,323.18,8.70,0000 0000 0000 0000 000000
2013-12-26 01:58:13,0.22,2.44,0.00,26.72,28.26,30.93,5.97,30.46,1024.87,2035.04,2640.20,2647.91,2887.30,350.51,323.04,8.71,0000 0000 0000 0000 000000
2013-12-26 01:59:13,0.22,2.44,0.00,26.72,28.25,30.93,5.88,30.46,1024.90,2035.11,2639.74,2647.39,2887.09,349.93,322.49,8.71,0000 0000 0000 0000 000000
2013-12-26 02:00:13,0.34,2.45,0.00,26.72,28.25,30.94,6.07,30.75,1024.85,2035.13,2639.29,2647.14,2886.76,350.21,322.74,8.72,0000 0000 0000 0000 000000
2013-12-26 02:01:13,0.22,2.45,0.00,26.72,28.25,30.97,5.99,30.71,1024.81,2035.09,2638.88,2646.87,2886.30,349.77,322.48,8.72,0000 0000 0000 0000 000000
2013-12-26 02:02:14,0.20,2.45,0.00,26.71,28.25,30.97,6.02,30.50,1024.81,2035.09,2638.33,2646.35,2886.02,350.85,322.77,8.73,0000 0000 0000 0000 000000
2013-12-26 02:03:14,0.31,2.45,0.00,26.67,28.25,30.97,5.94,30.38,1024.77,2035.06,2637.99,2646.12,2885.51,350.55,323.07,8.74,0000 0000 0000 0000 000000
2013-12-26 02:04:14,0.21,2.45,0.00,26.70,28.25,30.96,5.96,30.46,1024.69,2035.05,2637.42,2645.75,2885.16,350.69,323.09,8.74,0000 0000 0000 0000 000000
2013-12-26 02:05:15,0.26,2.45,0.00,26.68,28.25,30.97,5.85,30.67,1024.70,2035.03,2637.03,2645.28,2884.81,348.44,321.10,8.75,0000 0000 0000 0000 000000
2013-12-26 02:06:15,0.26,2.45,0.00,26.69,28.25,30.96,5.83,30.38,1024.70,2035.08,2636.47,2645.10,2884.33,350.36,322.86,8.75,0000 0000 0000 0000 000000
2013-12-26 02:07:15,0.26,2.46,0.00,26.70,28.25,30.94,5.94,30.71,1024.72,2035.06,2636.15,2644.76,2884.11,349.90,322.24,8.76,0000 0000 0000 0000 000000
2013-12-26 02:08:16,0.22,2.46,0.00,26.72,28.25,30.95,5.86,30.29,1024.74,2035.10,2635.65,2644.29,2883.81,350.19,322.69,8.77,0000 0000 0000 0000 000000
2013-12-26 02:09:16,0.31,2.46,0.00,26.69,28.25,30.96,5.97,30.67,1024.81,2035.11,2635.24,2644.09,2883.33,350.29,322.82,8.77,0000 0000 0000 0000 000000
2013-12-26 02:10:16,0.21,2.46,0.00,26.69,28.25,30.95,5.99,30.58,1024.79,2035.10,2634.87,2643.79,2883.10,350.17,323.06,8.78,0000 0000 0000 0000 000000
2013-12-26 02:11:17,0.20,2.46,0.00,26.71,28.25,30.98,5.84,30.42,1024.80,2035.07,2634.33,2643.31,2882.66,349.81,322.36,8.78,0000 0000 0000 0000 000000
2013-12-26 02:12:17,0.28,2.46,0.00,26.70,28.25,30.95,5.86,30.92,1024.75,2035.05,2633.85,2643.07,2882.24,349.33,321.92,8.79,0000 0000 0000 0000 000000
2013-12-26 02:13:17,0.22,2.46,0.00,26.68,28.25,30.91,6.07,30.54,1024.78,2035.08,2633.33,2642.65,2881.99,351.08,323.55,8.79,0000 0000 0000 0000 000000
2013-12-26 02:14:17,0.29,2.47,0.00,26.70,28.25,30.92,5.91,30.67,1024.82,2035.07,2633.07,2642.24,2881.46,350.15,322.69,8.80,0000 0000 0000 0000 000000
2013-12-26 02:15:17,0.26,2.47,0.00,26.71,28.25,30.93,5.89,30.58,1024.72,2035.05,2632.51,2642.03,2881.16,350.51,322.88,8.81,0000 0000 0000 0000 000000
2013-12-26 02:16:18,0.21,2.47,0.00,26.73,28.25,30.94,6.03,30.50,1024.70,2035.04,2632.15,2641.57,2880.83,350.24,322.80,8.81,0000 0000 0000 0000 000000
2013-12-26 02:17:18,0.26,2.47,0.00,26.73,28.25,30.96,5.93,30.50,1024.64,2035.07,2631.63,2641.21,2880.33,350.69,323.32,8.82,0000 0000 0000 0000 000000
2013-12-26 02:18:18,0.30,2.47,0.00,26.71,28.25,30.94,5.88,30.54,1024.61,2035.10,2631.20,2641.05,2880.10,348.73,321.64,8.82,0000 0000 0000 0000 000000
2013-12-26 02:19:19,0.20,2.47,0.00,26.72,28.25,30.92,5.83,30.50,1024.57,2035.10,2630.76,2640.67,2879.82,349.77,322.24,8.83,0000 0000 0000 0000 000000
2013-12-26 02:20:19,0.24,2.48,0.00,26.74,28.25,30.94,5.88,30.71,1024.59,2035.10,2630.29,2640.26,2879.33,350.99,322.96,8.84,0000 0000 0000 0000 000000
2013-12-26 02:21:19,0.28,2.48,0.00,26.70,28.25,30.96,5.91,30.63,1024.51,2035.06,2629.76,2640.02,2879.11,350.02,322.62,8.84,0000 0000 0000 0000 000000
2013-12-26 02:22:20,0.20,2.48,0.00,26.69,28.25,30.96,5.91,30.75,1024.51,2035.03,2629.27,2639.44,2878.71,349.51,322.01,8.85,0000 0000 0000 0000 000000
2013-12-26 02:23:20,0.28,2.48,0.00,26.69,28.25,30.94,5.69,30.79,1024.48,2035.03,2628.93,2639.16,2878.28,349.30,321.81,8.85,0000 0000 0000 0000 000000
2013-12-26 02:24:20,0.23,2.48,0.00,26.69,28.25,30.95,5.92,30.67,1024.50,2035.06,2628.37,2638.95,2878.05,349.81,322.29,8.86,0000 0000 0000 0000 000000
2013-12-26 02:25:20,0.25,2.48,0.00,26.70,28.25,30.95,5.93,30.71,1024.48,2035.06,2628.05,2638.47,2877.63,350.25,322.40,8.87,0000 0000 0000 0000 000000
2013-12-26 02:26:21,0.26,2.48,0.00,26.70,28.25,30.95,5.88,30.79,1024.45,2035.07,2627.52,2638.17,2877.24,349.63,322.10,8.87,0000 0000 0000 0000 000000
2013-12-26 02:27:21,0.24,2.49,0.00,26.70,28.25,30.94,5.89,30.71,1024.46,2035.07,2627.17,2637.93,2876.99,349.11,321.61,8.88,0000 0000 0000 0000 000000
2013-12-26 02:28:21,0.23,2.49,0.00,26.70,28.25,30.92,5.88,30.54,1024.45,2035.06,2626.65,2637.42,2876.47,350.48,322.66,8.88,0000 0000 0000 0000 000000
2013-12-26 02:29:22,0.30,2.49,0.00,26.69,28.25,30.95,5.93,30.67,1024.44,2035.11,2626.23,2637.15,2876.17,349.99,322.43,8.89,0000 0000 0000 0000 000000
2013-12-26 02:30:22,0.24,2.49,0.00,26.69,28.25,30.94,5.85,30.42,1024.46,2035.14,2625.85,2636.96,2875.95,349.07,321.59,8.89,0000 0000 0000 0000 000000
2013-12-26 02:31:22,0.23,2.49,0.00,26.66,28.25,30.96,5.96,30.63,1024.44,2035.10,2625.36,2636.45,2875.43,350.42,322.91,8.90,0000 0000 0000 0000 000000
2013-12-26 02:32:23,0.25,2.49,0.00,26.65,28.25,30.94,5.80,30.67,1024.43,2035.05,2624.93,2636.16,2875.12,350.07,322.46,8.91,0000 0000 0000 0000 000000
2013-12-26 02:33:23,0.21,2.49,0.00,26.65,28.25,30.96,6.07,30.71,1024.43,2035.10,2624.37,2635.91,2874.70,350.85,323.27,8.91,0000 0000 0000 0000 000000
2013-12-26 02:34:23,0.29,2.50,0.00,26.71,28.25,30.95,5.99,30.67,1024.44,2035.11,2624.06,2635.41,2874.26,350.98,323.38,8.92,0000 0000 0000 0000 000000
2013-12-26 02:35:23,0.29,2.50,0.00,26.69,28.25,30.93,5.91,30.38,1024.43,2035.10,2623.50,2635.15,2874.07,350.79,323.38,8.92,0000 0000 0000 0000 000000
2013-12-26 02:36:24,0.22,2.50,0.00,26.68,28.25,30.94,5.96,30.88,1024.44,2035.14,2623.17,2634.85,2873.64,350.13,322.82,8.93,0000 0000 0000 0000 000000
2013-12-26 02:37:24,0.25,2.50,0.00,26.70,28.25,30.94,5.86,30.75,1024.43,2035.10,2622.66,2634.35,2873.23,349.42,321.39,8.94,0000 0000 0000 0000 000000